Location: Unspecified
(0.0000°N, 0.0000°E)
Time: 13:37:57
(UTC+00:00)

SR - Visible Passes

Search period start: 21 February 2019 00:00
Search period end: 03 March 2019 00:00
Orbit: 583 x 874 km, 66.7° (Epoch: 20 February)

Date Brightness Start Highest point End Pass type
(mag) Time Alt. Az. Time Alt. Az. Time Alt. Az.
21 Feb ? 19:09:57 10° N 19:13:52 32° ENE 19:18:00 10° SE visible
21 Feb ? 20:54:50 10° W 20:55:45 10° WSW 20:56:40 10° SW visible
22 Feb ? 20:02:14 10° NW 20:06:06 30° WSW 20:10:13 10° S visible
23 Feb ? 19:12:10 10° NNW 19:16:32 89° W 19:21:16 10° SSE visible
24 Feb ? 20:07:19 10° W 20:08:57 12° WSW 20:10:38 10° SW visible
25 Feb ? 19:15:20 10° NW 19:19:18 33° WSW 19:23:33 10° S visible
27 Feb ? 05:11:51 10° SE 05:15:00 15° ESE 05:18:04 10° ENE visible
27 Feb ? 19:20:02 10° W 19:22:09 13° WSW 19:24:19 10° SW visible
01 Mar ? 05:12:45 10° S 05:17:54 34° ESE 05:22:43 10° NE visible
02 Mar ? 04:25:27 10° SE 04:28:14 14° ESE 04:30:57 10° E visible
02 Mar ? 18:32:52 10° W 18:35:20 14° WSW 18:37:55 10° SW visible
